This demonstration page uses our WeatherBlox Daily Observations layout. Learn more.

Left ArrowRight Arrow

Hourly Observations for May 28, 2020

Temp ( °F °C ) Dew Point ( °F °C ) Humidity (%) Winds ( mph kmh ) Pressure ( in mb ) Visibility ( mi km ) Precip ( " mm )
12:53 am 00:53 Partly Cloudy 70 21.1 67 19.4 90 90 Calm 29.95 1014 10 16 0.00 0.00
1:53 am 01:53 Cloudy 71 21.7 67 19.4 87 87 Calm 29.93 1014 10 16 0.00 0.00
2:53 am 02:53 Cloudy with Light Rain 71 21.7 69 20.6 94 94 Calm 29.94 1014 10 16 0.00 0.00
3:53 am 03:53 Cloudy with Heavy Rain 70 21.1 69 20.6 97 97 Calm 29.94 1014 3 5 0.16 4.06
4:19 am 04:19 Cloudy with Light Rain 70 21.1 69 20.6 97 97 VRB 3 6 29.93 1014 6 10 0.06 1.52
4:37 am 04:37 Cloudy with Light Rain 70 21.1 69 20.6 97 97 Calm 29.92 1013 10 16 0.07 1.78
4:44 am 04:44 Cloudy with Light Rain 70 21.1 69 20.6 97 97 Calm 29.92 1013 8 13 0.07 1.78
4:53 am 04:53 Cloudy with Light Rain 70 21.1 69 20.6 97 97 E 3 6 29.92 1013 8 13 0.07 1.78
5:17 am 05:17 Cloudy with Light Rain 69 20.6 69 20.6 100 100 E 3 6 29.92 1013 6 10 0.03 0.76
5:29 am 05:29 Cloudy with Light Rain 69 20.6 69 20.6 100 100 E 3 6 29.92 1013 10 16 0.03 0.76
5:49 am 05:49 Cloudy 70 21 70 21 100 100 E 3 6 29.92 1013 10 16 0.03 0.76
5:53 am 05:53 Cloudy with Light Rain 69 20.6 69 20.6 100 100 E 5 7 29.93 1013 10 16 0.03 0.76
6:31 am 06:31 Cloudy with Light Rain 69 20.6 69 20.6 100 100 E 3 6 29.93 1014 6 10 0.01 0.25
6:39 am 06:39 Cloudy with Light Rain 69 20.6 68 20 96 96 E 3 6 29.93 1014 5 8 0.01 0.25
6:53 am 06:53 Cloudy 69 20.6 68 20 96 96 E 3 6 29.94 1014 10 16 0.01 0.25
7:26 am 07:26 Cloudy with Light Rain 69 20.6 67 19.4 93 93 ESE 6 9 29.94 1014 10 16 0.02 0.51
7:45 am 07:45 Cloudy 69 20.6 67 19.4 93 93 E 5 7 29.94 1014 10 16 0.02 0.51
7:53 am 07:53 Cloudy 69 20.6 68 20 96 96 E 5 7 29.94 1014 10 16 0.02 0.51
8:53 am 08:53 Cloudy with Light Rain 69 20.6 67 19.4 93 93 ESE 3 6 29.95 1014 9 14 0.00 0.00
9:42 am 09:42 Cloudy 71 21.7 67 19.4 87 87 VRB 5 7 29.94 1014 10 16 0.00 0.00
9:53 am 09:53 Cloudy 71 21.7 68 20 90 90 VRB 3 6 29.95 1014 10 16 0.00 0.00
10:24 am 10:24 Cloudy 71 21.7 69 20.6 94 94 VRB 3 6 29.94 1014 10 16 0.01 0.25
10:34 am 10:34 Cloudy 72 22.2 69 20.6 91 91 VRB 7 11 29.94 1014 10 16 0.01 0.25
10:45 am 10:45 Cloudy 74 23.3 70 21.1 88 88 VRB 5 7 29.94 1014 10 16 0.01 0.25
10:53 am 10:53 Mostly Cloudy 73 22.8 68 20 84 84 WSW 8 13 29.95 1014 10 16 0.01 0.25
11:17 am 11:17 Partly Cloudy 73 22.8 67 19.4 81 81 WSW 13 20 29.95 1014 10 16 0.00 0.00
11:53 am 11:53 Partly Cloudy 76 24.4 67 19.4 74 74 SSW 9 15 29.96 1015 10 16 0.00 0.00
12:35 pm 12:35 Mostly Cloudy 76 24.4 67 19.4 74 74 WSW 8 13 29.96 1014 10 16 0.00 0.00
12:48 pm 12:48 Partly Cloudy 77 25 66 19 69 69 SW 6 9 29.95 1014 10 16 0.00 0.00
12:53 pm 12:53 Partly Cloudy 76 24.4 66 18.9 72 72 SW 9 15 29.97 1015 10 16 0.00 0.00
1:53 pm 13:53 Mostly Cloudy 77 25 65 18.3 66 66 WSW 9 15 29.96 1014 10 16 0.00 0.00
2:53 pm 14:53 Partly Cloudy 80 26.7 63 17.2 56 56 SW 7 11 29.93 1014 10 16 0.00 0.00
3:53 pm 15:53 Partly Cloudy 81 27.2 63 17.2 54 54 SW 12 19 29.91 1013 10 16 0.00 0.00
4:53 pm 16:53 Partly Cloudy 81 27.2 62 16.7 53 53 VRB 7 11 29.90 1012 10 16 0.00 0.00
5:53 pm 17:53 Mostly Sunny 82 27.8 62 16.7 51 51 undefined N/A 29.89 1012 10 16 0.00 0.00
6:53 pm 18:53 Sunny 81 27.2 61 16.1 51 51 SW 7 11 29.89 1012 10 16 0.00 0.00
7:53 pm 19:53 Mostly Cloudy 78 25.6 64 17.8 62 62 Calm 29.90 1013 10 16 0.00 0.00
8:53 pm 20:53 Mostly Cloudy 74 23.3 67 19.4 79 79 Calm 29.89 1012 10 16 0.00 0.00
9:53 pm 21:53 Mostly Cloudy 73 22.8 67 19.4 81 81 Calm 29.91 1013 10 16 0.00 0.00
10:53 pm 22:53 Mostly Cloudy 75 23.9 64 17.8 69 69 SW 3 6 29.91 1013 10 16 0.00 0.00
11:53 pm 23:53 Mostly Cloudy 73 22.8 66 18.9 79 79 W 3 6 29.91 1013 10 16 0.00 0.00

Powered by AerisWeather